• Join FlightAware (Why Join?)
  • Login
  • US Flag 
02:28AM EDT


 

Airport Tracker/Info


-or-


 

Live Flight TrackerFlight Track Log ✈ VRT51 ✈ 05-Jan-2014 ✈ KPBI - KBNA

Flight Track Log - Related Links

Times and Time Zones

All times are in EST time to prevent confusion due to time zone crossing. See the VRT51 flight status page for this flight to view local times or setup timezone preferences in your user account.

Time Position Orientation Groundspeed Altitude Reporting Facility
EST Latitude Longitude Course Direction KTS MPH feet Rate Location/Type
04:41PM 26.6431 -79.9408 296° West 250 288 6,300  Level Miami Center
04:42PM 26.5961 -79.9956 226° Southwest 271 312 9,700 1,800 Climbing Miami Center
04:43PM 26.5942 -80.0767 268° West 292 336 10,000 1,020 Climbing Miami Center
04:44PM 26.5900 -80.1789 267° West 316 364 11,800 1,800 Climbing Miami Center
04:45PM 26.5831 -80.2969 266° West 340 391 13,600 1,620 Climbing Miami Center
04:46PM 27.2268 -80.4360 296° West  Level Estimated
04:46PM 26.5786 -80.3944 267° West 350 403 15,100  Level Miami Center
04:47PM 26.5711 -80.5244 266° West 374 430 16,100 1,200 Climbing Miami Center
04:48PM 26.6125 -80.6278 294° West 360 414 17,500 1,800 Climbing Miami Center
04:49PM 26.6981 -80.7003 323° Northwest 368 423 19,800 2,100 Climbing Miami Center
04:50PM 26.7861 -80.7683 325° Northwest 396 456 21,700 2,100 Climbing Miami Center
04:51PM 26.8803 -80.8389 326° Northwest 406 467 24,000 2,100 Climbing Miami Center
04:52PM 26.9783 -80.9217 323° Northwest 423 487 25,900 1,800 Climbing Miami Center
04:53PM 27.0764 -80.9972 326° Northwest 428 493 27,700 1,860 Climbing Miami Center
04:54PM 27.1844 -81.0828 325° Northwest 428 493 29,700 1,800 Climbing Miami Center
04:55PM 27.2844 -81.1614 325° Northwest 433 498 31,300 1,500 Climbing Miami Center
04:56PM 27.3761 -81.2347 325° Northwest 433 498 32,800 1,680 Climbing Miami Center
04:57PM 27.4681 -81.3061 325° Northwest 433 498 34,700 2,280 Climbing Miami Center
04:58PM 27.5678 -81.3872 324° Northwest 414 476 37,400 2,220 Climbing Miami Center
04:59PM 27.6492 -81.4539 324° Northwest 381 438 39,200 1,260 Climbing Miami Center
05:00PM 27.7203 -81.5106 325° Northwest 360 414 40,000 360 Climbing Miami Center
05:01PM 27.8036 -81.5775 325° Northwest 355 409 40,000  Level Miami Center
05:03PM 27.9650 -81.7014 326° Northwest 386 444 40,000  Level Jacksonville Center
05:04PM 28.0533 -81.7731 324° Northwest 391 450 40,000  Level Jacksonville Center
05:05PM 28.1436 -81.8450 325° Northwest 391 450 40,000  Level Jacksonville Center
05:06PM 28.2381 -81.9078 330° Northwest 391 450 40,000  Level Jacksonville Center
05:07PM 28.3406 -81.9517 339° North 386 444 40,000  Level Jacksonville Center
05:08PM 28.4472 -82.0003 338° Northwest 393 452 40,000  Level Jacksonville Center
05:09PM 28.5500 -82.0464 338° Northwest 398 458 40,000  Level Jacksonville Center
05:10PM 28.6567 -82.0931 339° North 398 458 40,000  Level Jacksonville Center
05:11PM 28.7592 -82.1369 339° North 398 458 40,000  Level Jacksonville Center
05:12PM 28.8617 -82.1836 338° Northwest 398 458 40,000  Level Jacksonville Center
05:13PM 28.9725 -82.2328 339° North 398 458 40,000  Level Jacksonville Center
05:14PM 29.0772 -82.2819 338° Northwest 398 458 40,000  Level Jacksonville Center
05:15PM 29.1817 -82.3289 339° North 398 458 40,000  Level Jacksonville Center
05:16PM 29.2842 -82.3736 339° North 398 458 40,000  Level Jacksonville Center
05:17PM 29.3889 -82.4231 338° Northwest 398 458 40,000  Level Jacksonville Center
05:18PM 29.4933 -82.4678 340° North 398 458 40,000  Level Jacksonville Center
05:19PM 29.6000 -82.5153 339° North 398 458 40,000  Level Jacksonville Center
05:20PM 29.7044 -82.5625 339° North 398 458 40,000  Level Jacksonville Center
05:21PM 29.8111 -82.6100 339° North 398 458 40,000  Level Jacksonville Center
05:22PM 29.9156 -82.6650 335° Northwest 398 458 40,000  Level Jacksonville Center
05:23PM 30.0200 -82.7128 338° Northwest 398 458 40,000  Level Jacksonville Center
05:24PM 30.1225 -82.7556 340° North 398 458 40,000  Level Jacksonville Center
05:25PM 30.2183 -82.7964 340° North 398 458 40,000  Level Jacksonville Center
05:26PM 30.3208 -82.8469 337° Northwest 398 458 40,000  Level Jacksonville Center
05:27PM 30.4231 -82.8925 339° North 398 458 40,000  Level Jacksonville Center
05:28PM 30.5275 -82.9408 338° Northwest 398 458 40,000  Level Jacksonville Center
05:29PM 30.6297 -82.9867 339° North 398 458 40,000  Level Jacksonville Center
05:30PM 30.7319 -83.0375 337° Northwest 398 458 40,000  Level Jacksonville Center
05:31PM 30.8425 -83.0911 337° Northwest 398 458 40,000  Level Jacksonville Center
05:32PM 30.9261 -83.1300 338° Northwest 392 451 40,000  Level Jacksonville Center
05:33PM 31.0367 -83.1836 337° Northwest 397 457 40,000  Level Jacksonville Center
05:34PM 31.1431 -83.2325 339° North 397 457 40,000  Level Jacksonville Center
05:36PM 31.3647 -83.3361 338° Northwest 403 464 40,000  Level Atlanta Center
05:37PM 31.4672 -83.3864 337° Northwest 403 464 40,000  Level Atlanta Center
05:38PM 31.5678 -83.4319 339° North 398 458 40,000  Level Atlanta Center
05:39PM 31.6703 -83.4778 339° North 393 452 40,000  Level Atlanta Center
05:40PM 31.7728 -83.5283 337° Northwest 393 452 40,000  Level Atlanta Center
05:41PM 31.8753 -83.5767 338° Northwest 393 452 40,000  Level Atlanta Center
05:42PM 31.9756 -83.6250 338° Northwest 393 452 40,000  Level Atlanta Center
05:43PM 32.0736 -83.6736 337° Northwest 393 452 40,000  Level Atlanta Center
05:44PM 32.1719 -83.7222 337° Northwest 388 447 40,000  Level Atlanta Center
05:45PM 32.2722 -83.7711 338° Northwest 388 447 40,000  Level Atlanta Center
05:46PM 32.3683 -83.8175 338° Northwest 383 441 40,000  Level Atlanta Center
05:47PM 32.4686 -83.8667 338° Northwest 383 441 40,000  Level Atlanta Center
05:48PM 32.5711 -83.9156 338° Northwest 383 441 40,000  Level Atlanta Center
05:49PM 32.6692 -83.9647 337° Northwest 383 441 40,000  Level Atlanta Center
05:50PM 32.7672 -84.0142 337° Northwest 383 441 40,000  Level Atlanta Center
05:51PM 32.8694 -84.0586 340° North 383 441 40,000  Level Atlanta Center
05:52PM 32.9656 -84.1106 336° Northwest 378 435 40,000  Level Atlanta Center
05:53PM 33.0658 -84.1628 336° Northwest 378 435 40,000  Level Atlanta Center
05:54PM 33.1681 -84.2125 338° Northwest 383 441 40,000  Level Atlanta Center
05:55PM 33.2681 -84.2625 337° Northwest 383 441 40,000  Level Atlanta Center
05:56PM 33.3681 -84.3100 338° Northwest 383 441 40,000  Level Atlanta Center
05:57PM 33.4703 -84.3600 338° Northwest 391 450 40,000  Level Atlanta Center
05:58PM 33.5703 -84.4103 337° Northwest 396 456 40,000  Level Atlanta Center
05:59PM 33.6517 -84.4481 339° North 396 456 40,000  Level Atlanta Center
06:00PM 33.7581 -84.4961 339° North 396 456 40,000  Level Atlanta Center
06:01PM 33.8747 -84.5517 338° Northwest 403 464 40,000  Level Atlanta Center
06:02PM 33.9808 -84.6025 338° Northwest 403 464 40,000  Level Atlanta Center
06:03PM 34.0786 -84.6633 333° Northwest 397 457 40,000 -240 Level Atlanta Center
06:04PM 34.1931 -84.7294 334° Northwest 397 457 39,600 -900 Descending Atlanta Center
06:05PM 34.2886 -84.7881 333° Northwest 402 463 38,200 -1,500 Descending Atlanta Center
06:06PM 34.3864 -84.8467 334° Northwest 389 448 36,600 -1,500 Descending Atlanta Center
06:07PM 34.4861 -84.9083 333° Northwest 389 448 35,200 -1,200 Descending Atlanta Center
06:08PM 34.5714 -84.9622 333° Northwest 389 448 34,200 -1,140 Descending Atlanta Center
06:09PM 34.6669 -85.0261 331° Northwest 394 453 33,000 -600 Descending Atlanta Center
06:10PM 34.7622 -85.1058 326° Northwest 399 459 33,000  Level Atlanta Center
06:11PM 34.8447 -85.1981 317° Northwest 399 459 33,000 -360 Level Atlanta Center
06:13PM 35.0111 -85.3731 319° Northwest 400 460 32,000 -1,200 Descending Memphis Center
06:14PM 35.1003 -85.4586 322° Northwest 404 465 29,500 -2,700 Descending Memphis Center
06:15PM 35.1953 -85.5539 321° Northwest 431 496 26,500 -3,000 Descending Memphis Center
06:16PM 35.2892 -85.6458 321° Northwest 433 498 23,400 -2,940 Descending Memphis Center
06:17PM 35.3739 -85.7314 321° Northwest 403 464 20,500 -2,700 Descending Memphis Center
06:18PM 35.4547 -85.8117 321° Northwest 382 440 17,900 -2,640 Descending Memphis Center
06:19PM 35.5497 -85.9092 320° Northwest 371 427 15,200 -1,620 Descending Memphis Center
06:21PM 35.6169 -85.9933 315° West 349 402 14,600 -900 Descending Memphis Center
06:22PM 35.6714 -86.0706 311° West 323 372 13,400 -1,200 Descending Memphis Center
06:23PM 35.7275 -86.1461 312° West 302 348 12,200 -1,200 Descending Memphis Center
06:24PM 35.7844 -86.2208 313° West 297 342 11,000 -1,200 Descending Memphis Center
06:25PM 35.8353 -86.2900 312° West 280 322 9,800 -1,260 Descending Memphis Center
06:26PM 35.8933 -86.3428 324° Northwest 261 300 8,500 -1,320 Descending Memphis Center
06:27PM 35.9678 -86.3981 329° Northwest 265 305 7,100 -1,320 Descending Memphis Center
06:28PM 36.0375 -86.4317 339° North 264 304 5,900 -1,080 Descending Memphis Center
06:29PM 36.1058 -86.4628 340° North 263 303 5,000 -780 Descending Memphis Center
06:30PM 36.1686 -86.4908 340° North 246 283 4,400 -900 Descending Memphis Center
06:31PM 36.2300 -86.5189 340° North 237 273 3,200 -1,080 Descending Memphis Center
06:32PM 36.2681 -86.5644 316° Northwest 196 226 2,300 -600 Descending Memphis Center
06:33PM 36.2511 -86.6106 246° West 166 191 2,000 -120 Descending Memphis Center
06:34PM 36.2108 -86.6286 200° South 154 177 2,100 -240 Climbing Memphis Center
06:35PM 36.1775 -86.6422 198° South 136 157 1,600 -540 Descending Memphis Center
06:36PM 36.1489 -86.6531 197° South 114 131 1,000 -480 Descending Memphis Center
06:37PM 36.1150 -86.6667 198° South 113 130 700 -300 Descending Memphis Center
06:39PM 36.1167 -86.6667 345° North  Level FlightAware Approximate